Location: Courçay
(47.2523°N, 0.8761°E)
Time: 20:27:08
(UTC+00:00)

Cosmos 1464 Rocket - Pass Details

Date: 18 November 2025
Orbit: 950 x 1001 km, 82.9° (Epoch: 05 December)

Event Time Altitude Azimuth Distance (km) Brightness Sun altitude
Rises 17:40:40 0° 172° (S) 3,689 7.1 -13.9°
Reaches altitude 10° 17:43:14 10° 169° (SSE) 2,738 6.4 -14.4°
Maximum altitude 17:49:20 57° 92° (E) 1,146 4.0 -15.4°
Drops below altitude 10° 17:55:25 10° 16° (NNE) 2,722 6.1 -16.4°
Sets 17:57:57 0° 13° (NNE) 3,666 6.8 -16.8°
